Location: Cella
(44.7333°N, 10.5667°E)
Time: 14:55:30
(UTC+00:00)

GP-B - Pass Details

Date: 03 March 2021
Orbit: 631 x 635 km, 89.8° (Epoch: 23 April)

Event Time Altitude Azimuth Distance (km) Brightness Sun altitude
Rises 17:44:20 0° 147° (SSE) 2,917 6.2 -7.2°
Reaches altitude 10° 17:46:49 10° 134° (SE) 2,015 5.3 -7.7°
Maximum altitude 17:50:29 26° 78° (ENE) 1,249 4.1 -8.3°
Drops below altitude 10° 17:54:11 10° 22° (NNE) 2,030 5.5 -9.0°
Sets 17:56:41 0° 10° (N) 2,944 6.4 -9.4°
